Starlink 31183

operational
NORAD ID: 58747 Int'l Des: 2024-005 Owner: SPXS Country: US Constellation: starlink
LEOCIRCULAR

Über Starlink 31183

Beschreibung wird geladen...

Live-Position

3D-Globus wird geladen...

Nächste Überflüge

Höhenverlauf

Altitude vs Time

uPlot chart will show altitude changes over time

Zweizeiliger Elementsatz

1 58747U 24005V 25304.72247178 .00001123 00000-0 98193-4 0 9995
2 58747 43.0034 202.2273 0001257 264.1203 95.9496 15.02536707101121
Epoch: 31. Okt. 2025 • Age: 20 hours

Aktueller Status

Höhe 564.3 km
Geschwindigkeit 7.58 km/s
Subsatellitenpunkt -23.97°S, 163.24°E
Startdatum 7. Jan. 2024
Alter 1.8 years
Typ internet

Technische Details

Klassifizierung Payload
Masse 730.00 kg
Trockenmasse 700.00 kg
Gesamtmasse 730.00 kg
Länge 0.30 m
Durchmesser 4.10 m
Spannweite 29.00 m
Form Box + pan
Hersteller SPXS
Bus-Typ Starlink V2M
Phasenstatus In Orbit
Besitzer/Staat SPXS/US

Große Konstellationen

Loading constellations...